Time,TemperatureF,DewpointF,PressureIn,WindDirection,WindDirectionDegrees,WindSpeedMPH,WindSpeedGustMPH,Humidity,HourlyPrecipIn,Conditions,Clouds,dailyrainin,SolarRadiationWatts/m^2,SoftwareType,DateUTC
2013-03-17 00:00:00,28.5,22.2,30.26,NNE,26,0.6,3.5,77,0.00,OVC,,0.00,0.0,WeatherDisplay:10.37,2013-03-17 05:00:00,
2013-03-17 00:07:00,28.5,22.5,30.26,North,357,1.0,5.0,78,0.00,OVC,OVC,0.00,0.0,WeatherDisplay:10.37,2013-03-17 05:07:00,
2013-03-17 00:12:00,28.4,22.4,30.26,NNW,327,1.7,3.5,78,0.00,OVC,,0.00,0.0,WeatherDisplay:10.37,2013-03-17 05:12:00,
2013-03-17 00:17:00,28.4,22.4,30.25,NW,323,2.0,8.0,78,0.00,OVC,OVC,0.00,0.0,WeatherDisplay:10.37,2013-03-17 05:17:00,
2013-03-17 00:22:00,28.3,22.3,30.25,WNW,303,2.0,8.0,78,0.00,OVC,OVC,0.00,0.0,WeatherDisplay:10.37,2013-03-17 05:22:00,
2013-03-17 00:27:00,28.2,22.2,30.25,NW,318,1.0,9.0,78,0.00,OVC,OVC,0.00,0.0,WeatherDisplay:10.37,2013-03-17 05:27:00,
2013-03-17 00:32:00,28.2,22.2,30.25,NW,318,2.0,8.0,78,0.00,OVC,OVC,0.00,0.0,WeatherDisplay:10.37,2013-03-17 05:32:00,
2013-03-17 00:37:00,28.1,21.8,30.26,NW,316,2.0,12.0,77,0.00,OVC,OVC,0.00,0.0,WeatherDisplay:10.37,2013-03-17 05:37:00,
2013-03-17 00:42:00,28.1,21.8,30.26,NW,311,1.0,8.0,77,0.00,OVC,OVC,0.00,0.0,WeatherDisplay:10.37,2013-03-17 05:42:00,
2013-03-17 00:47:00,28.1,22.1,30.25,NW,317,0.0,9.0,78,0.00,OVC,OVC,0.00,0.0,WeatherDisplay:10.37,2013-03-17 05:47:00,
2013-03-17 00:52:00,28.1,22.1,30.25,NW,326,0.0,9.0,78,0.00,OVC,OVC,0.00,0.0,WeatherDisplay:10.37,2013-03-17 05:52:00,
2013-03-17 00:57:00,28.1,22.1,30.25,NW,319,2.0,5.0,78,0.00,OVC,OVC,0.00,0.0,WeatherDisplay:10.37,2013-03-17 05:57:00,
2013-03-17 01:02:00,28.1,22.4,30.24,NW,316,2.0,9.0,79,0.00,OVC,OVC,0.00,0.0,WeatherDisplay:10.37,2013-03-17 06:02:00,
2013-03-17 01:07:00,28.1,22.1,30.24,NNW,331,2.7,8.1,78,0.00,OVC,,0.00,0.0,WeatherDisplay:10.37,2013-03-17 06:07:00,
2013-03-17 01:12:00,28.0,22.3,30.24,NW,321,2.7,6.9,79,0.00,OVC,,0.00,0.0,WeatherDisplay:10.37,2013-03-17 06:12:00,
2013-03-17 01:17:00,27.9,21.9,30.24,North,5,4.7,10.4,78,0.00,OVC,,0.00,0.0,WeatherDisplay:10.37,2013-03-17 06:17:00,
2013-03-17 01:22:00,27.9,21.9,30.24,NW,313,4.4,10.0,78,0.00,OVC,,0.00,0.0,WeatherDisplay:10.37,2013-03-17 06:22:00,
2013-03-17 01:28:00,27.9,21.9,30.23,North,360,1.9,6.0,78,0.00,OVC,,0.00,0.0,WeatherDisplay:10.37,2013-03-17 06:28:00,
2013-03-17 01:33:00,27.8,21.8,30.23,NNE,33,2.1,4.0,78,0.00,OVC,,0.00,0.0,WeatherDisplay:10.37,2013-03-17 06:33:00,
2013-03-17 01:38:00,27.8,22.1,30.22,North,355,2.8,6.0,79,0.00,OVC,,0.00,0.0,WeatherDisplay:10.37,2013-03-17 06:38:00,
2013-03-17 01:43:00,27.7,22.0,30.22,NNW,331,3.6,8.0,79,0.00,OVC,,0.00,0.0,WeatherDisplay:10.37,2013-03-17 06:43:00,
2013-03-17 01:49:00,27.6,21.9,30.22,NW,310,5.0,9.0,79,0.00,OVC,,0.00,0.0,WeatherDisplay:10.37,2013-03-17 06:49:00,
2013-03-17 01:54:00,27.5,21.8,30.22,NNW,327,3.8,6.0,79,0.00,OVC,,0.00,0.0,WeatherDisplay:10.37,2013-03-17 06:54:00,
2013-03-17 01:59:00,27.5,21.8,30.22,NNW,337,4.3,11.5,79,0.00,OVC,,0.00,0.0,WeatherDisplay:10.37,2013-03-17 06:59:00,
2013-03-17 02:04:00,27.4,21.7,30.22,NW,306,4.6,8.1,79,0.00,OVC,,0.00,0.0,WeatherDisplay:10.37,2013-03-17 07:04:00,
2013-03-17 02:10:00,27.4,22.0,30.22,North,355,0.2,2.3,80,0.00,OVC,,0.00,0.0,WeatherDisplay:10.37,2013-03-17 07:10:00,
2013-03-17 02:15:00,27.4,22.0,30.22,NNE,12,0.7,3.5,80,0.00,OVC,,0.00,0.0,WeatherDisplay:10.37,2013-03-17 07:15:00,
2013-03-17 02:20:00,27.4,22.0,30.22,West,260,5.4,9.2,80,0.00,OVC,,0.00,0.0,WeatherDisplay:10.37,2013-03-17 07:20:00,
2013-03-17 02:25:00,27.2,21.8,30.22,NW,314,0.2,8.1,80,0.00,OVC,,0.00,0.0,WeatherDisplay:10.37,2013-03-17 07:25:00,
2013-03-17 02:31:00,27.2,21.8,30.21,NNE,33,1.0,5.0,80,0.00,OVC,,0.00,0.0,WeatherDisplay:10.37,2013-03-17 07:31:00,
2013-03-17 02:36:00,27.2,21.5,30.21,NW,316,5.1,8.1,79,0.00,OVC,,0.00,0.0,WeatherDisplay:10.37,2013-03-17 07:36:00,
2013-03-17 02:41:00,27.1,21.5,30.20,North,11,2.3,5.8,79,0.00,OVC,,0.00,0.0,WeatherDisplay:10.37,2013-03-17 07:41:00,
2013-03-17 02:47:00,27.1,21.7,30.21,North,355,2.8,8.1,80,0.00,OVC,,0.00,0.0,WeatherDisplay:10.37,2013-03-17 07:47:00,
2013-03-17 02:52:00,27.0,21.6,30.21,NNW,341,3.0,9.0,80,0.00,OVC,OVC,0.00,0.0,WeatherDisplay:10.37,2013-03-17 07:52:00,
2013-03-17 02:57:00,26.9,21.6,30.22,NNW,344,2.0,6.0,80,0.00,OVC,OVC,0.00,0.0,WeatherDisplay:10.37,2013-03-17 07:57:00,
2013-03-17 03:02:00,26.9,21.8,30.21,NNE,31,0.5,3.5,81,0.00,OVC,,0.00,0.0,WeatherDisplay:10.37,2013-03-17 08:02:00,
2013-03-17 03:07:00,26.8,21.8,30.21,NNW,334,1.5,5.8,81,0.00,OVC,,0.00,0.0,WeatherDisplay:10.37,2013-03-17 08:07:00,
2013-03-17 03:12:00,26.7,21.4,30.20,North,360,3.1,5.8,80,0.00,OVC,,0.00,0.0,WeatherDisplay:10.37,2013-03-17 08:12:00,
2013-03-17 03:17:00,26.6,21.3,30.21,NNE,30,2.5,4.6,80,0.00,OVC,,0.00,0.0,WeatherDisplay:10.37,2013-03-17 08:17:00,
2013-03-17 03:23:00,26.6,21.3,30.21,North,355,1.0,3.5,80,0.00,OVC,,0.00,0.0,WeatherDisplay:10.37,2013-03-17 08:23:00,
2013-03-17 03:28:00,26.4,20.8,30.20,North,355,3.1,8.1,79,0.00,OVC,,0.00,0.0,WeatherDisplay:10.37,2013-03-17 08:28:00,
2013-03-17 03:33:00,26.3,21.0,30.20,NNE,18,3.0,9.2,80,0.00,OVC,,0.00,0.0,WeatherDisplay:10.37,2013-03-17 08:33:00,
2013-03-17 03:38:00,26.2,20.9,30.20,North,360,2.9,6.9,80,0.00,OVC,,0.00,0.0,WeatherDisplay:10.37,2013-03-17 08:38:00,
2013-03-17 03:44:00,26.1,20.8,30.20,WNW,290,0.5,5.8,80,0.00,OVC,,0.00,0.0,WeatherDisplay:10.37,2013-03-17 08:44:00,
2013-03-17 03:49:00,26.1,21.1,30.19,WNW,301,3.0,6.0,81,0.00,OVC,,0.00,0.0,WeatherDisplay:10.37,2013-03-17 08:49:00,
2013-03-17 03:54:00,26.1,21.4,30.19,NNE,18,3.6,8.1,82,0.00,OVC,,0.00,0.0,WeatherDisplay:10.37,2013-03-17 08:54:00,
2013-03-17 03:59:00,25.9,21.2,30.19,North,355,1.9,7.0,82,0.00,OVC,,0.00,0.0,WeatherDisplay:10.37,2013-03-17 08:59:00,
2013-03-17 04:05:00,25.9,21.2,30.19,NNW,338,6.0,6.0,82,0.00,OVC,,0.00,0.0,WeatherDisplay:10.37,2013-03-17 09:05:00,
2013-03-17 04:10:00,25.8,21.1,30.19,North,11,3.8,8.1,82,0.00,OVC,,0.00,0.0,WeatherDisplay:10.37,2013-03-17 09:10:00,
2013-03-17 04:15:00,25.7,21.0,30.19,North,5,1.1,3.5,82,0.00,OVC,,0.00,0.0,WeatherDisplay:10.37,2013-03-17 09:15:00,
2013-03-17 04:20:00,25.6,20.9,30.18,NNE,30,3.8,10.0,82,0.00,OVC,,0.00,0.0,WeatherDisplay:10.37,2013-03-17 09:20:00,
2013-03-17 04:26:00,25.5,20.5,30.18,NNE,24,1.6,4.6,81,0.00,OVC,,0.00,0.0,WeatherDisplay:10.37,2013-03-17 09:26:00,
2013-03-17 04:31:00,25.5,20.8,30.18,NNW,344,0.1,1.0,82,0.00,OVC,,0.00,0.0,WeatherDisplay:10.37,2013-03-17 09:31:00,
2013-03-17 04:36:00,25.4,20.7,30.18,North,360,2.1,4.0,82,0.00,OVC,,0.00,0.0,WeatherDisplay:10.37,2013-03-17 09:36:00,
2013-03-17 04:42:00,25.4,20.7,30.18,NNE,21,3.0,9.0,82,0.00,OVC,OVC,0.00,0.0,WeatherDisplay:10.37,2013-03-17 09:42:00,
2013-03-17 04:47:00,25.4,20.7,30.18,NNE,22,2.0,7.0,82,0.00,OVC,OVC,0.00,0.0,WeatherDisplay:10.37,2013-03-17 09:47:00,
2013-03-17 04:52:00,25.4,20.7,30.18,NNE,16,0.0,6.0,82,0.00,OVC,OVC,0.00,0.0,WeatherDisplay:10.37,2013-03-17 09:52:00,
2013-03-17 04:57:00,25.3,20.6,30.18,NNE,22,3.0,8.0,82,0.00,OVC,OVC,0.00,0.0,WeatherDisplay:10.37,2013-03-17 09:57:00,
2013-03-17 05:02:00,25.3,20.9,30.18,NNE,12,2.0,6.0,83,0.00,OVC,OVC,0.00,0.0,WeatherDisplay:10.37,2013-03-17 10:02:00,
2013-03-17 05:07:00,25.2,20.8,30.18,North,356,2.0,5.0,83,0.00,OVC,OVC,0.00,0.0,WeatherDisplay:10.37,2013-03-17 10:07:00,
2013-03-17 05:12:00,25.2,20.8,30.19,NNE,33,1.4,4.0,83,0.00,OVC,,0.00,0.0,WeatherDisplay:10.37,2013-03-17 10:12:00,
2013-03-17 05:17:00,25.1,20.1,30.19,East,80,3.5,5.8,81,0.00,OVC,,0.00,0.0,WeatherDisplay:10.37,2013-03-17 10:17:00,
2013-03-17 05:22:00,25.0,20.0,30.19,NNE,25,1.7,5.8,81,0.00,OVC,,0.00,0.0,WeatherDisplay:10.37,2013-03-17 10:22:00,
2013-03-17 05:28:00,24.9,19.6,30.19,NE,46,2.4,6.9,80,0.00,OVC,,0.00,0.0,WeatherDisplay:10.37,2013-03-17 10:28:00,
2013-03-17 05:33:00,24.7,19.4,30.19,NNE,24,4.0,8.1,80,0.00,OVC,,0.00,0.0,WeatherDisplay:10.37,2013-03-17 10:33:00,
2013-03-17 05:38:00,24.6,19.6,30.20,NNE,14,1.3,7.0,81,0.00,OVC,,0.00,0.0,WeatherDisplay:10.37,2013-03-17 10:38:00,
2013-03-17 05:43:00,24.6,19.6,30.20,NE,46,2.1,5.0,81,0.00,OVC,,0.00,0.0,WeatherDisplay:10.37,2013-03-17 10:43:00,
2013-03-17 05:49:00,24.5,19.5,30.20,NE,39,1.6,6.9,81,0.00,OVC,,0.00,0.0,WeatherDisplay:10.37,2013-03-17 10:49:00,
2013-03-17 05:54:00,24.5,19.8,30.20,NE,51,1.3,2.3,82,0.00,OVC,,0.00,0.0,WeatherDisplay:10.37,2013-03-17 10:54:00,
2013-03-17 05:59:00,24.4,19.7,30.20,NE,35,1.5,3.5,82,0.00,OVC,,0.00,0.0,WeatherDisplay:10.37,2013-03-17 10:59:00,
2013-03-17 06:04:00,24.4,19.7,30.20,NNE,22,2.2,7.0,82,0.00,OVC,,0.00,0.0,WeatherDisplay:10.37,2013-03-17 11:04:00,
2013-03-17 06:10:00,24.4,20.0,30.19,NNE,30,0.4,4.6,83,0.00,OVC,,0.00,0.0,WeatherDisplay:10.37,2013-03-17 11:10:00,
2013-03-17 06:15:00,24.3,19.9,30.20,NNE,19,2.1,7.0,83,0.00,OVC,,0.00,0.0,WeatherDisplay:10.37,2013-03-17 11:15:00,
2013-03-17 06:20:00,24.3,19.9,30.21,NE,39,3.2,8.1,83,0.00,OVC,,0.00,0.0,WeatherDisplay:10.37,2013-03-17 11:20:00,
2013-03-17 06:25:00,24.2,19.8,30.20,NNE,15,3.5,5.0,83,0.00,OVC,,0.00,0.0,WeatherDisplay:10.37,2013-03-17 11:25:00,
2013-03-17 06:31:00,24.2,19.8,30.20,ENE,70,0.5,3.0,83,0.00,OVC,,0.00,0.0,WeatherDisplay:10.37,2013-03-17 11:31:00,
2013-03-17 06:36:00,24.1,19.7,30.20,NNE,32,2.4,8.1,83,0.00,OVC,,0.00,0.0,WeatherDisplay:10.37,2013-03-17 11:36:00,
2013-03-17 06:41:00,24.1,19.7,30.20,NNE,16,3.2,8.0,83,0.00,OVC,,0.00,0.0,WeatherDisplay:10.37,2013-03-17 11:41:00,
2013-03-17 06:46:00,24.0,19.3,30.20,NE,53,1.9,3.5,82,0.00,OVC,,0.00,0.0,WeatherDisplay:10.37,2013-03-17 11:46:00,
2013-03-17 06:52:00,23.9,19.5,30.20,North,360,1.8,9.0,83,0.00,OVC,,0.00,0.0,WeatherDisplay:10.37,2013-03-17 11:52:00,
2013-03-17 06:57:00,23.8,19.1,30.20,NE,36,2.0,9.0,82,0.00,OVC,OVC,0.00,0.0,WeatherDisplay:10.37,2013-03-17 11:57:00,
2013-03-17 07:02:00,23.7,19.0,30.20,NNE,26,1.0,5.0,82,0.00,OVC,OVC,0.00,0.0,WeatherDisplay:10.37,2013-03-17 12:02:00,
2013-03-17 07:07:00,23.6,18.9,30.20,NNE,15,2.0,7.0,82,0.00,OVC,OVC,0.00,0.0,WeatherDisplay:10.37,2013-03-17 12:07:00,
2013-03-17 07:12:00,23.5,19.1,30.20,NNE,29,3.0,8.0,83,0.00,OVC,OVC,0.00,0.0,WeatherDisplay:10.37,2013-03-17 12:12:00,
2013-03-17 07:17:00,23.4,19.0,30.21,NE,39,2.0,5.0,83,0.00,OVC,OVC,0.00,0.0,WeatherDisplay:10.37,2013-03-17 12:17:00,
2013-03-17 07:22:00,23.4,19.0,30.21,NE,40,1.0,6.0,83,0.00,OVC,OVC,0.00,0.0,WeatherDisplay:10.37,2013-03-17 12:22:00,
2013-03-17 07:27:00,23.3,18.9,30.21,NNE,20,0.0,3.5,83,0.00,OVC,,0.00,0.0,WeatherDisplay:10.37,2013-03-17 12:27:00,
2013-03-17 07:32:00,23.3,18.9,30.21,NNE,32,1.0,4.0,83,0.00,OVC,OVC,0.00,12.6,WeatherDisplay:10.37,2013-03-17 12:32:00,
2013-03-17 07:37:00,23.2,19.1,30.21,NNE,12,0.2,1.2,84,0.00,OVC,,0.00,15.4,WeatherDisplay:10.37,2013-03-17 12:37:00,
2013-03-17 07:42:00,23.2,19.1,30.21,NNE,16,0.0,2.0,84,0.00,OVC,OVC,0.00,19.6,WeatherDisplay:10.37,2013-03-17 12:42:00,
2013-03-17 07:47:00,23.2,19.1,30.21,NNE,19,0.8,3.5,84,0.00,OVC,,0.00,25.2,WeatherDisplay:10.37,2013-03-17 12:47:00,
2013-03-17 07:52:00,23.2,19.1,30.21,NNE,24,1.6,3.5,84,0.00,OVC,,0.00,26.6,WeatherDisplay:10.37,2013-03-17 12:52:00,
2013-03-17 07:57:00,23.3,19.2,30.21,NNE,25,0.2,1.0,84,0.00,OVC,,0.00,29.4,WeatherDisplay:10.37,2013-03-17 12:57:00,
2013-03-17 08:03:00,23.4,19.3,30.21,North,5,0.0,0.0,84,0.00,OVC,,0.00,35.0,WeatherDisplay:10.37,2013-03-17 13:03:00,
2013-03-17 08:08:00,23.5,19.4,30.22,NE,42,2.3,3.5,84,0.00,OVC,,0.00,35.0,WeatherDisplay:10.37,2013-03-17 13:08:00,
2013-03-17 08:13:00,23.6,19.5,30.22,NNE,23,1.1,4.0,84,0.00,OVC,,0.00,39.2,WeatherDisplay:10.37,2013-03-17 13:13:00,
2013-03-17 08:18:00,23.8,19.4,30.22,NE,44,0.8,2.3,83,0.00,OVC,,0.00,44.8,WeatherDisplay:10.37,2013-03-17 13:18:00,
2013-03-17 08:24:00,24.0,19.6,30.22,NE,40,1.1,3.5,83,0.00,OVC,,0.00,54.6,WeatherDisplay:10.37,2013-03-17 13:24:00,
2013-03-17 08:29:00,24.3,19.9,30.21,NE,51,0.0,3.5,83,0.00,OVC,,0.00,56.0,WeatherDisplay:10.37,2013-03-17 13:29:00,
2013-03-17 08:34:00,24.5,19.8,30.21,NE,55,1.4,4.0,82,0.00,OVC,,0.00,54.6,WeatherDisplay:10.37,2013-03-17 13:34:00,
2013-03-17 08:39:00,24.8,20.1,30.21,NE,50,1.5,5.0,82,0.00,OVC,,0.00,54.6,WeatherDisplay:10.37,2013-03-17 13:39:00,
2013-03-17 08:45:00,24.9,19.9,30.21,NE,35,1.8,5.8,81,0.00,OVC,,0.00,172.2,WeatherDisplay:10.37,2013-03-17 13:45:00,
2013-03-17 08:50:00,25.2,19.9,30.21,NE,50,1.5,3.5,80,0.00,OVC,,0.00,126.0,WeatherDisplay:10.37,2013-03-17 13:50:00,
2013-03-17 08:55:00,25.3,19.7,30.21,NE,49,0.4,5.8,79,0.00,OVC,,0.00,194.6,WeatherDisplay:10.37,2013-03-17 13:55:00,
2013-03-17 09:01:00,25.6,20.3,30.21,North,355,1.9,4.6,80,0.00,OVC,,0.00,58.8,WeatherDisplay:10.37,2013-03-17 14:01:00,
2013-03-17 09:06:00,25.9,20.0,30.22,NNE,25,4.8,9.2,78,0.00,OVC,,0.00,194.6,WeatherDisplay:10.37,2013-03-17 14:06:00,
2013-03-17 09:11:00,26.1,19.9,30.21,East,91,3.5,7.0,77,0.00,OVC,,0.00,422.8,WeatherDisplay:10.37,2013-03-17 14:11:00,
2013-03-17 09:16:00,26.5,20.3,30.22,NE,48,4.5,11.0,77,0.00,OVC,,0.00,243.6,WeatherDisplay:10.37,2013-03-17 14:16:00,
2013-03-17 09:22:00,26.7,20.1,30.21,NNE,31,0.0,2.3,76,0.00,OVC,,0.00,78.4,WeatherDisplay:10.37,2013-03-17 14:22:00,
2013-03-17 09:27:00,26.9,20.3,30.21,North,11,4.9,9.2,76,0.00,OVC,,0.00,299.6,WeatherDisplay:10.37,2013-03-17 14:27:00,
2013-03-17 09:32:00,27.1,20.6,30.21,NE,52,6.0,12.0,76,0.00,OVC,OVC,0.00,145.6,WeatherDisplay:10.37,2013-03-17 14:32:00,
2013-03-17 09:37:00,27.2,20.4,30.20,NE,48,0.0,6.0,75,0.00,OVC,OVC,0.00,88.2,WeatherDisplay:10.37,2013-03-17 14:37:00,
2013-03-17 09:42:00,27.6,20.7,30.20,NE,50,3.0,9.0,75,0.00,OVC,OVC,0.00,113.4,WeatherDisplay:10.37,2013-03-17 14:42:00,
2013-03-17 09:47:00,27.7,20.5,30.20,ENE,68,2.0,8.0,74,0.00,OVC,OVC,0.00,81.2,WeatherDisplay:10.37,2013-03-17 14:47:00,
2013-03-17 09:52:00,28.1,20.8,30.20,ENE,57,3.0,6.0,74,0.00,OVC,OVC,0.00,341.6,WeatherDisplay:10.37,2013-03-17 14:52:00,
2013-03-17 09:57:00,28.5,20.9,30.20,NE,47,5.0,8.0,73,0.00,OVC,OVC,0.00,233.8,WeatherDisplay:10.37,2013-03-17 14:57:00,
2013-03-17 10:02:00,28.7,21.2,30.20,ENE,59,2.0,10.0,73,0.00,OVC,OVC,0.00,91.0,WeatherDisplay:10.37,2013-03-17 15:02:00,
2013-03-17 10:07:00,29.1,21.5,30.20,ENE,73,3.0,7.0,73,0.00,OVC,OVC,0.00,133.0,WeatherDisplay:10.37,2013-03-17 15:07:00,
2013-03-17 10:12:00,29.3,21.4,30.20,ENE,69,3.0,12.0,72,0.00,OVC,OVC,0.00,289.8,WeatherDisplay:10.37,2013-03-17 15:12:00,
2013-03-17 10:17:00,29.2,21.0,30.20,NE,46,4.1,10.4,71,0.00,OVC,,0.00,376.6,WeatherDisplay:10.37,2013-03-17 15:17:00,
2013-03-17 10:22:00,29.1,21.2,30.20,East,88,3.9,8.1,72,0.00,OVC,,0.00,214.2,WeatherDisplay:10.37,2013-03-17 15:22:00,
2013-03-17 10:27:00,29.2,21.3,30.20,SE,134,2.8,5.8,72,0.00,OVC,,0.00,184.8,WeatherDisplay:10.37,2013-03-17 15:27:00,
2013-03-17 10:33:00,29.5,22.2,30.20,NE,43,1.7,6.0,74,0.00,OVC,,0.00,502.6,WeatherDisplay:10.37,2013-03-17 15:33:00,
2013-03-17 10:38:00,29.7,21.8,30.20,East,95,4.7,10.4,72,0.00,OVC,,0.00,390.6,WeatherDisplay:10.37,2013-03-17 15:38:00,
2013-03-17 10:43:00,29.9,22.0,30.19,NNE,30,4.2,6.9,72,0.00,OVC,,0.00,152.6,WeatherDisplay:10.37,2013-03-17 15:43:00,
2013-03-17 10:48:00,30.2,21.9,30.20,ESE,103,5.5,10.4,71,0.00,OVC,,0.00,359.8,WeatherDisplay:10.37,2013-03-17 15:48:00,
2013-03-17 10:54:00,30.5,22.2,30.19,ESE,111,3.9,12.7,71,0.00,OVC,,0.00,506.8,WeatherDisplay:10.37,2013-03-17 15:54:00,
2013-03-17 10:59:00,30.6,22.0,30.19,ESE,118,3.0,9.0,70,0.00,OVC,,0.00,494.2,WeatherDisplay:10.37,2013-03-17 15:59:00,
2013-03-17 11:04:00,31.0,22.0,30.19,NE,42,3.6,8.1,69,0.00,OVC,,0.00,688.8,WeatherDisplay:10.37,2013-03-17 16:04:00,
2013-03-17 11:09:00,31.0,22.4,30.18,NE,34,1.8,5.8,70,0.00,OVC,,0.00,541.8,WeatherDisplay:10.37,2013-03-17 16:09:00,
2013-03-17 11:15:00,31.3,23.0,30.18,SE,124,1.0,4.0,71,0.00,OVC,,0.00,523.6,WeatherDisplay:10.37,2013-03-17 16:15:00,
2013-03-17 11:20:00,31.6,22.6,30.17,ENE,77,3.7,8.1,69,0.00,OVC,,0.00,922.6,WeatherDisplay:10.37,2013-03-17 16:20:00,
2013-03-17 11:25:00,32.1,23.1,30.17,East,90,2.1,6.9,69,0.00,OVC,,0.00,942.2,WeatherDisplay:10.37,2013-03-17 16:25:00,
2013-03-17 11:30:00,33.0,23.9,30.16,ESE,123,2.4,4.6,69,0.00,OVC,,0.00,938.0,WeatherDisplay:10.37,2013-03-17 16:30:00,
2013-03-17 11:36:00,33.1,23.7,30.16,East,87,3.8,4.0,68,0.00,OVC,,0.00,996.8,WeatherDisplay:10.37,2013-03-17 16:36:00,
2013-03-17 11:41:00,33.7,23.5,30.16,ESE,103,3.4,8.1,66,0.00,OVC,,0.00,900.2,WeatherDisplay:10.37,2013-03-17 16:41:00,
2013-03-17 11:46:00,33.3,23.2,30.16,NNE,33,4.3,10.4,66,0.00,OVC,,0.00,1016.4,WeatherDisplay:10.37,2013-03-17 16:46:00,
2013-03-17 11:51:00,33.3,23.2,30.15,ENE,76,5.6,13.8,66,0.00,OVC,,0.00,1020.6,WeatherDisplay:10.37,2013-03-17 16:51:00,
2013-03-17 11:57:00,34.6,24.4,30.15,NNE,28,2.0,12.7,66,0.00,OVC,,0.00,1010.8,WeatherDisplay:10.37,2013-03-17 16:57:00,
2013-03-17 12:02:00,34.2,23.7,30.15,NE,40,2.0,12.0,65,0.00,OVC,OVC,0.00,1061.2,WeatherDisplay:10.37,2013-03-17 17:02:00,
2013-03-17 12:07:00,34.8,24.2,30.14,NE,52,2.0,7.0,65,0.00,OVC,OVC,0.00,1068.2,WeatherDisplay:10.37,2013-03-17 17:07:00,
2013-03-17 12:12:00,35.4,24.0,30.14,East,89,3.0,10.0,63,0.00,OVC,OVC,0.00,1075.2,WeatherDisplay:10.37,2013-03-17 17:12:00,
2013-03-17 12:17:00,35.0,23.2,30.13,East,99,5.0,10.0,62,0.00,OVC,OVC,0.00,1075.2,WeatherDisplay:10.37,2013-03-17 17:17:00,
2013-03-17 12:22:00,35.2,23.8,30.13,East,92,5.0,12.0,63,0.00,OVC,OVC,0.00,1087.8,WeatherDisplay:10.37,2013-03-17 17:22:00,
2013-03-17 12:27:00,35.3,24.7,30.12,ENE,77,2.0,7.0,65,0.00,OVC,OVC,0.00,1075.2,WeatherDisplay:10.37,2013-03-17 17:27:00,
2013-03-17 12:32:00,35.2,24.3,30.12,ENE,68,1.0,12.0,64,0.00,OVC,OVC,0.00,1080.8,WeatherDisplay:10.37,2013-03-17 17:32:00,
2013-03-17 12:37:00,35.9,24.1,30.11,ENE,72,3.0,9.0,62,0.00,OVC,OVC,0.00,1061.2,WeatherDisplay:10.37,2013-03-17 17:37:00,
2013-03-17 12:42:00,36.5,24.7,30.11,East,82,5.3,10.4,62,0.00,OVC,,0.00,1082.2,WeatherDisplay:10.37,2013-03-17 17:42:00,
2013-03-17 12:47:00,36.1,23.9,30.11,NNE,33,3.6,9.2,61,0.00,OVC,,0.00,1075.2,WeatherDisplay:10.37,2013-03-17 17:47:00,
2013-03-17 12:52:00,36.2,24.0,30.11,East,93,6.7,10.4,61,0.00,OVC,,0.00,1107.4,WeatherDisplay:10.37,2013-03-17 17:52:00,
2013-03-17 12:58:00,36.3,24.1,30.10,ESE,102,2.8,7.0,61,0.00,OVC,,0.00,1120.0,WeatherDisplay:10.37,2013-03-17 17:58:00,
2013-03-17 13:03:00,36.8,24.6,30.10,ENE,69,4.0,7.0,61,0.00,OVC,,0.00,1090.6,WeatherDisplay:10.37,2013-03-17 18:03:00,
2013-03-17 13:08:00,36.5,24.7,30.10,East,83,3.4,6.9,62,0.00,OVC,,0.00,1132.6,WeatherDisplay:10.37,2013-03-17 18:08:00,
2013-03-17 13:13:00,37.3,25.8,30.09,ESE,121,4.4,9.2,63,0.00,OVC,,0.00,1136.8,WeatherDisplay:10.37,2013-03-17 18:13:00,
2013-03-17 13:19:00,36.5,24.7,30.09,ESE,106,5.8,9.2,62,0.00,OVC,,0.00,1134.0,WeatherDisplay:10.37,2013-03-17 18:19:00,
2013-03-17 13:24:00,37.2,25.8,30.09,ESE,116,3.6,9.2,63,0.00,OVC,,0.00,1132.6,WeatherDisplay:10.37,2013-03-17 18:24:00,
2013-03-17 13:29:00,37.1,25.7,30.09,ESE,118,3.3,6.9,63,0.00,OVC,,0.00,1107.4,WeatherDisplay:10.37,2013-03-17 18:29:00,
2013-03-17 13:34:00,37.3,25.5,30.09,ESE,108,6.4,10.4,62,0.00,OVC,,0.00,1134.0,WeatherDisplay:10.37,2013-03-17 18:34:00,
2013-03-17 13:40:00,37.5,25.7,30.08,SE,142,2.9,9.2,62,0.00,OVC,,0.00,1071.0,WeatherDisplay:10.37,2013-03-17 18:40:00,
2013-03-17 13:45:00,37.6,25.7,30.08,SE,132,4.3,10.0,62,0.00,OVC,,0.00,1065.4,WeatherDisplay:10.37,2013-03-17 18:45:00,
2013-03-17 13:50:00,37.9,26.4,30.08,ESE,107,4.3,10.0,63,0.00,OVC,,0.00,1013.6,WeatherDisplay:10.37,2013-03-17 18:50:00,
2013-03-17 13:55:00,37.1,25.7,30.07,SSE,152,2.0,9.2,63,0.00,OVC,,0.00,1075.2,WeatherDisplay:10.37,2013-03-17 18:55:00,
2013-03-17 14:01:00,37.4,26.3,30.06,ESE,121,5.4,10.4,64,0.00,OVC,,0.00,1052.8,WeatherDisplay:10.37,2013-03-17 19:01:00,
2013-03-17 14:06:00,37.8,26.3,30.06,East,96,5.7,12.7,63,0.00,OVC,,0.00,967.4,WeatherDisplay:10.37,2013-03-17 19:06:00,
2013-03-17 14:11:00,37.9,26.8,30.05,NE,52,3.1,6.9,64,0.00,OVC,,0.00,1003.8,WeatherDisplay:10.37,2013-03-17 19:11:00,
2013-03-17 14:16:00,37.5,26.0,30.05,ESE,103,3.0,4.0,63,0.00,OVC,,0.00,812.0,WeatherDisplay:10.37,2013-03-17 19:16:00,
2013-03-17 14:21:00,37.8,26.7,30.05,ESE,116,3.3,6.0,64,0.00,OVC,,0.00,1068.2,WeatherDisplay:10.37,2013-03-17 19:21:00,
2013-03-17 14:27:00,38.6,27.8,30.04,East,101,5.0,8.1,65,0.00,OVC,,0.00,1071.0,WeatherDisplay:10.37,2013-03-17 19:27:00,
2013-03-17 14:32:00,38.7,26.8,30.04,East,100,3.0,10.0,62,0.00,OVC,OVC,0.00,1045.8,WeatherDisplay:10.37,2013-03-17 19:32:00,
2013-03-17 14:37:00,38.9,26.6,30.04,ENE,76,6.6,14.0,61,0.00,OVC,,0.00,1058.4,WeatherDisplay:10.37,2013-03-17 19:37:00,
2013-03-17 14:42:00,39.2,27.3,30.03,SE,136,3.4,5.8,62,0.00,OVC,,0.00,1043.0,WeatherDisplay:10.37,2013-03-17 19:42:00,
2013-03-17 14:47:00,39.3,26.6,30.02,ESE,107,1.4,3.5,60,0.00,OVC,,0.00,1013.6,WeatherDisplay:10.37,2013-03-17 19:47:00,
2013-03-17 14:52:00,39.4,26.7,30.02,NE,44,4.3,8.1,60,0.00,OVC,,0.00,1026.2,WeatherDisplay:10.37,2013-03-17 19:52:00,
2013-03-17 14:58:00,39.1,27.2,30.01,East,88,4.2,13.0,62,0.00,OVC,,0.00,1010.8,WeatherDisplay:10.37,2013-03-17 19:58:00,
2013-03-17 15:03:00,38.7,26.8,30.01,East,92,3.1,6.0,62,0.00,OVC,,0.00,996.8,WeatherDisplay:10.37,2013-03-17 20:03:00,
2013-03-17 15:08:00,39.1,27.6,30.01,ESE,116,4.4,10.4,63,0.00,OVC,,0.00,984.2,WeatherDisplay:10.37,2013-03-17 20:08:00,
2013-03-17 15:13:00,39.7,27.7,30.00,East,96,3.1,8.1,62,0.00,OVC,,0.00,819.0,WeatherDisplay:10.37,2013-03-17 20:13:00,
2013-03-17 15:19:00,40.0,26.8,30.00,East,82,2.9,6.9,59,0.00,OVC,,0.00,637.0,WeatherDisplay:10.37,2013-03-17 20:19:00,
2013-03-17 15:24:00,40.7,28.3,29.99,ENE,61,3.8,10.4,61,0.00,OVC,,0.00,942.2,WeatherDisplay:10.37,2013-03-17 20:24:00,
2013-03-17 15:29:00,40.3,28.3,29.99,East,80,2.4,7.0,62,0.00,OVC,,0.00,688.8,WeatherDisplay:10.37,2013-03-17 20:29:00,
2013-03-17 15:35:00,39.9,27.9,29.99,NE,51,2.9,6.9,62,0.00,OVC,,0.00,912.8,WeatherDisplay:10.37,2013-03-17 20:35:00,
2013-03-17 15:40:00,40.1,26.9,29.99,ESE,105,4.6,9.2,59,0.00,OVC,,0.00,898.8,WeatherDisplay:10.37,2013-03-17 20:40:00,
2013-03-17 15:45:00,39.9,26.7,29.99,SE,124,5.1,10.4,59,0.00,OVC,,0.00,838.6,WeatherDisplay:10.37,2013-03-17 20:45:00,
2013-03-17 15:50:00,40.0,27.2,29.99,ENE,62,3.4,6.0,60,0.00,OVC,,0.00,714.0,WeatherDisplay:10.37,2013-03-17 20:50:00,
2013-03-17 15:56:00,39.9,27.9,29.98,ENE,67,4.0,9.2,62,0.00,OVC,,0.00,624.4,WeatherDisplay:10.37,2013-03-17 20:56:00,
2013-03-17 16:01:00,39.5,27.5,29.98,ENE,61,3.8,9.2,62,0.00,OVC,,0.00,554.4,WeatherDisplay:10.37,2013-03-17 21:01:00,
2013-03-17 16:06:00,39.6,28.0,29.98,ENE,67,4.3,9.2,63,0.00,OVC,,0.00,574.0,WeatherDisplay:10.37,2013-03-17 21:06:00,
2013-03-17 16:12:00,40.0,28.0,29.98,SE,132,4.8,11.5,62,0.00,OVC,,0.00,438.2,WeatherDisplay:10.37,2013-03-17 21:12:00,
2013-03-17 16:17:00,39.9,27.9,29.98,East,89,5.0,12.0,62,0.00,OVC,OVC,0.00,411.6,WeatherDisplay:10.37,2013-03-17 21:17:00,
2013-03-17 16:22:00,39.9,27.5,29.98,East,92,6.0,13.0,61,0.00,OVC,OVC,0.00,422.8,WeatherDisplay:10.37,2013-03-17 21:22:00,
2013-03-17 16:27:00,39.7,27.7,29.97,SE,131,6.1,11.5,62,0.00,OVC,,0.00,351.4,WeatherDisplay:10.37,2013-03-17 21:27:00,
2013-03-17 16:32:00,39.7,28.1,29.97,SE,124,2.0,12.7,63,0.00,OVC,,0.00,268.8,WeatherDisplay:10.37,2013-03-17 21:32:00,
2013-03-17 16:37:00,39.9,27.9,29.97,East,92,5.0,10.0,62,0.00,OVC,OVC,0.00,259.0,WeatherDisplay:10.37,2013-03-17 21:37:00,
2013-03-17 16:42:00,40.1,28.5,29.97,NNE,33,5.3,6.9,63,0.00,OVC,,0.00,477.4,WeatherDisplay:10.37,2013-03-17 21:42:00,
2013-03-17 16:47:00,40.0,28.4,29.97,ENE,61,5.6,9.2,63,0.00,OVC,,0.00,315.0,WeatherDisplay:10.37,2013-03-17 21:47:00,
2013-03-17 16:52:00,40.0,28.4,29.97,East,82,3.7,7.0,63,0.00,OVC,,0.00,399.0,WeatherDisplay:10.37,2013-03-17 21:52:00,
2013-03-17 16:58:00,40.1,28.5,29.97,East,101,3.5,8.0,63,0.00,OVC,,0.00,450.8,WeatherDisplay:10.37,2013-03-17 21:58:00,
2013-03-17 17:03:00,39.8,28.6,29.97,ENE,76,3.8,7.0,64,0.00,OVC,,0.00,379.4,WeatherDisplay:10.37,2013-03-17 22:03:00,
2013-03-17 17:08:00,39.1,28.3,29.97,NE,41,2.5,3.5,65,0.00,OVC,,0.00,389.2,WeatherDisplay:10.37,2013-03-17 22:08:00,
2013-03-17 17:13:00,39.3,28.5,29.97,NE,53,5.9,11.5,65,0.00,OVC,,0.00,357.0,WeatherDisplay:10.37,2013-03-17 22:13:00,
2013-03-17 17:19:00,39.0,28.6,29.97,East,99,3.2,6.9,66,0.00,OVC,,0.00,250.6,WeatherDisplay:10.37,2013-03-17 22:19:00,
2013-03-17 17:24:00,39.1,29.1,29.97,East,87,3.9,6.9,67,0.00,OVC,,0.00,145.6,WeatherDisplay:10.37,2013-03-17 22:24:00,
2013-03-17 17:29:00,39.1,29.1,29.96,East,101,5.7,11.5,67,0.00,OVC,,0.00,298.2,WeatherDisplay:10.37,2013-03-17 22:29:00,
2013-03-17 17:34:00,39.1,29.1,29.96,East,92,4.3,11.5,67,0.00,OVC,,0.00,331.8,WeatherDisplay:10.37,2013-03-17 22:34:00,
2013-03-17 17:40:00,39.0,29.0,29.96,ESE,120,2.9,8.1,67,0.00,OVC,,0.00,184.8,WeatherDisplay:10.37,2013-03-17 22:40:00,
2013-03-17 17:45:00,39.1,29.4,29.95,East,95,2.1,3.5,68,0.00,OVC,,0.00,140.0,WeatherDisplay:10.37,2013-03-17 22:45:00,
2013-03-17 17:50:00,39.0,29.0,29.96,ESE,105,2.8,6.9,67,0.00,OVC,,0.00,140.0,WeatherDisplay:10.37,2013-03-17 22:50:00,
2013-03-17 17:55:00,38.8,28.8,29.96,ENE,71,2.5,5.8,67,0.00,OVC,,0.00,135.8,WeatherDisplay:10.37,2013-03-17 22:55:00,
2013-03-17 18:01:00,38.4,28.8,29.95,East,82,2.0,5.8,68,0.00,OVC,,0.00,91.0,WeatherDisplay:10.37,2013-03-17 23:01:00,
2013-03-17 18:06:00,38.4,29.1,29.95,ESE,104,2.3,3.5,69,0.00,OVC,,0.00,65.8,WeatherDisplay:10.37,2013-03-17 23:06:00,
2013-03-17 18:11:00,38.3,29.0,29.95,East,81,4.0,6.9,69,0.00,OVC,,0.00,68.6,WeatherDisplay:10.37,2013-03-17 23:11:00,
2013-03-17 18:16:00,38.3,29.0,29.95,East,80,2.6,4.6,69,0.00,OVC,,0.00,116.2,WeatherDisplay:10.37,2013-03-17 23:16:00,
2013-03-17 18:22:00,38.3,29.4,29.95,ESE,119,1.2,3.5,70,0.00,OVC,,0.00,91.0,WeatherDisplay:10.37,2013-03-17 23:22:00,
2013-03-17 18:27:00,38.4,29.5,29.94,ESE,109,2.7,4.0,70,0.00,OVC,,0.00,88.2,WeatherDisplay:10.37,2013-03-17 23:27:00,
2013-03-17 18:32:00,38.4,29.5,29.94,East,96,5.0,8.0,70,0.00,OVC,OVC,0.00,71.4,WeatherDisplay:10.37,2013-03-17 23:32:00,
2013-03-17 18:37:00,38.2,29.3,29.94,East,86,2.0,8.0,70,0.00,OVC,OVC,0.00,74.2,WeatherDisplay:10.37,2013-03-17 23:37:00,
2013-03-17 18:42:00,38.0,29.1,29.94,East,96,2.0,8.0,70,0.00,OVC,OVC,0.00,68.6,WeatherDisplay:10.37,2013-03-17 23:42:00,
2013-03-17 18:47:00,37.9,29.3,29.94,ENE,65,3.6,5.8,71,0.00,OVC,,0.00,49.0,WeatherDisplay:10.37,2013-03-17 23:47:00,
2013-03-17 18:52:00,37.9,29.3,29.93,ENE,70,3.3,6.0,71,0.00,OVC,,0.00,44.8,WeatherDisplay:10.37,2013-03-17 23:52:00,
2013-03-17 18:57:00,37.9,29.3,29.93,NE,37,9.0,9.2,71,0.00,OVC,,0.00,36.4,WeatherDisplay:10.37,2013-03-17 23:57:00,
2013-03-17 19:03:00,37.7,29.5,29.92,East,91,3.4,8.0,72,0.00,OVC,,0.00,19.6,WeatherDisplay:10.37,2013-03-18 00:03:00,
2013-03-17 19:08:00,37.6,29.4,29.92,SE,133,4.2,12.7,72,0.00,OVC,,0.00,12.6,WeatherDisplay:10.37,2013-03-18 00:08:00,
2013-03-17 19:13:00,37.5,29.3,29.92,ENE,59,2.3,6.0,72,0.00,OVC,,0.00,7.0,WeatherDisplay:10.37,2013-03-18 00:13:00,
2013-03-17 19:18:00,37.4,29.2,29.92,East,94,3.9,7.0,72,0.00,OVC,,0.00,0.0,WeatherDisplay:10.37,2013-03-18 00:18:00,
2013-03-17 19:24:00,37.3,29.1,29.92,East,81,2.6,7.0,72,0.00,OVC,,0.00,0.0,WeatherDisplay:10.37,2013-03-18 00:24:00,
2013-03-17 19:29:00,37.1,29.2,29.92,East,80,1.8,8.1,73,0.00,OVC,,0.00,0.0,WeatherDisplay:10.37,2013-03-18 00:29:00,
2013-03-17 19:34:00,36.9,29.1,29.92,ESE,107,2.3,4.6,73,0.00,OVC,,0.00,0.0,WeatherDisplay:10.37,2013-03-18 00:34:00,
2013-03-17 19:39:00,36.7,29.2,29.92,South,186,3.2,7.0,74,0.00,OVC,,0.00,0.0,WeatherDisplay:10.37,2013-03-18 00:39:00,
2013-03-17 19:45:00,36.6,29.1,29.92,ENE,74,4.3,10.4,74,0.00,OVC,,0.00,0.0,WeatherDisplay:10.37,2013-03-18 00:45:00,
2013-03-17 19:50:00,36.5,29.3,29.92,SE,136,2.7,3.5,75,0.00,OVC,,0.00,0.0,WeatherDisplay:10.37,2013-03-18 00:50:00,
2013-03-17 19:55:00,36.5,29.3,29.92,SE,130,3.2,7.0,75,0.00,OVC,,0.00,0.0,WeatherDisplay:10.37,2013-03-18 00:55:00,
2013-03-17 20:00:00,36.4,29.2,29.92,East,99,1.6,4.0,75,0.00,OVC,,0.00,0.0,WeatherDisplay:10.37,2013-03-18 01:00:00,
2013-03-17 20:06:00,36.4,29.2,29.92,ESE,109,3.2,6.0,75,0.00,OVC,,0.00,0.0,WeatherDisplay:10.37,2013-03-18 01:06:00,
2013-03-17 20:11:00,36.3,29.5,29.92,NE,54,1.2,3.5,76,0.00,OVC,,0.00,0.0,WeatherDisplay:10.37,2013-03-18 01:11:00,
2013-03-17 20:16:00,36.2,29.4,29.92,East,101,2.4,7.0,76,0.00,OVC,,0.00,0.0,WeatherDisplay:10.37,2013-03-18 01:16:00,
2013-03-17 20:21:00,36.2,29.4,29.92,ENE,63,1.9,3.5,76,0.00,OVC,,0.00,0.0,WeatherDisplay:10.37,2013-03-18 01:21:00,
2013-03-17 20:27:00,36.2,29.4,29.92,ESE,110,2.9,13.8,76,0.00,OVC,,0.00,0.0,WeatherDisplay:10.37,2013-03-18 01:27:00,
2013-03-17 20:32:00,36.1,29.6,29.92,East,90,2.0,6.0,77,0.00,OVC,OVC,0.00,0.0,WeatherDisplay:10.37,2013-03-18 01:32:00,
2013-03-17 20:37:00,36.1,29.6,29.93,East,90,3.0,10.0,77,0.00,OVC,OVC,0.00,0.0,WeatherDisplay:10.37,2013-03-18 01:37:00,
2013-03-17 20:42:00,36.1,29.6,29.92,ENE,68,0.0,3.5,77,0.00,OVC,,0.00,0.0,WeatherDisplay:10.37,2013-03-18 01:42:00,
2013-03-17 20:47:00,36.1,29.6,29.93,ENE,73,2.0,7.0,77,0.00,OVC,OVC,0.00,0.0,WeatherDisplay:10.37,2013-03-18 01:47:00,
2013-03-17 20:52:00,36.0,29.5,29.93,ENE,57,3.4,6.0,77,0.00,OVC,,0.00,0.0,WeatherDisplay:10.37,2013-03-18 01:52:00,
2013-03-17 20:57:00,36.0,29.8,29.92,ESE,109,2.8,8.1,78,0.00,OVC,,0.00,0.0,WeatherDisplay:10.37,2013-03-18 01:57:00,
2013-03-17 21:02:00,35.9,29.7,29.93,ENE,71,2.4,8.1,78,0.00,OVC,,0.00,0.0,WeatherDisplay:10.37,2013-03-18 02:02:00,
2013-03-17 21:08:00,35.9,29.7,29.93,ESE,108,3.6,10.4,78,0.00,OVC,,0.00,0.0,WeatherDisplay:10.37,2013-03-18 02:08:00,
2013-03-17 21:13:00,35.9,29.7,29.93,East,86,1.9,8.1,78,0.00,OVC,,0.00,0.0,WeatherDisplay:10.37,2013-03-18 02:13:00,
2013-03-17 21:18:00,35.8,29.6,29.93,NNE,28,2.6,5.8,78,0.00,OVC,,0.00,0.0,WeatherDisplay:10.37,2013-03-18 02:18:00,
2013-03-17 21:23:00,35.8,29.9,29.93,SE,141,3.8,13.0,79,0.00,OVC,,0.00,0.0,WeatherDisplay:10.37,2013-03-18 02:23:00,
2013-03-17 21:29:00,35.7,29.8,29.93,NE,36,4.1,9.0,79,0.00,OVC,,0.00,0.0,WeatherDisplay:10.37,2013-03-18 02:29:00,
2013-03-17 21:34:00,35.7,29.8,29.93,NNE,13,1.1,5.0,79,0.00,OVC,,0.00,0.0,WeatherDisplay:10.37,2013-03-18 02:34:00,
2013-03-17 21:39:00,35.7,29.8,29.93,SE,124,1.8,3.5,79,0.00,OVC,,0.00,0.0,WeatherDisplay:10.37,2013-03-18 02:39:00,
2013-03-17 21:44:00,35.7,29.8,29.93,East,99,1.5,3.5,79,0.00,OVC,,0.00,0.0,WeatherDisplay:10.37,2013-03-18 02:44:00,
2013-03-17 21:50:00,35.7,29.8,29.93,ENE,69,3.0,6.9,79,0.00,OVC,,0.00,0.0,WeatherDisplay:10.37,2013-03-18 02:50:00,
2013-03-17 21:55:00,35.7,29.8,29.93,ESE,122,3.5,7.0,79,0.00,OVC,,0.00,0.0,WeatherDisplay:10.37,2013-03-18 02:55:00,
2013-03-17 22:00:00,35.7,29.8,29.93,East,82,3.8,5.8,79,0.00,OVC,,0.00,0.0,WeatherDisplay:10.37,2013-03-18 03:00:00,
2013-03-17 22:05:00,35.6,29.7,29.93,East,92,1.7,4.6,79,0.00,OVC,,0.00,0.0,WeatherDisplay:10.37,2013-03-18 03:05:00,
2013-03-17 22:11:00,35.5,29.9,29.93,East,81,4.4,9.0,80,0.00,OVC,,0.00,0.0,WeatherDisplay:10.37,2013-03-18 03:11:00,
2013-03-17 22:16:00,35.4,29.8,29.92,ESE,123,2.0,5.8,80,0.00,OVC,,0.00,0.0,WeatherDisplay:10.37,2013-03-18 03:16:00,
2013-03-17 22:21:00,35.3,29.7,29.92,ENE,76,2.6,6.9,80,0.00,OVC,,0.00,0.0,WeatherDisplay:10.37,2013-03-18 03:21:00,
2013-03-17 22:26:00,35.2,29.6,29.92,ESE,114,2.2,4.0,80,0.00,OVC,,0.00,0.0,WeatherDisplay:10.37,2013-03-18 03:26:00,
2013-03-17 22:32:00,35.2,29.6,29.91,East,101,1.6,3.5,80,0.00,OVC,,0.00,0.0,WeatherDisplay:10.37,2013-03-18 03:32:00,
2013-03-17 22:37:00,35.2,29.6,29.91,ESE,111,1.0,4.0,80,0.00,OVC,OVC,0.00,0.0,WeatherDisplay:10.37,2013-03-18 03:37:00,
2013-03-17 22:42:00,35.2,29.6,29.91,ESE,111,3.0,8.0,80,0.00,OVC,OVC,0.00,0.0,WeatherDisplay:10.37,2013-03-18 03:42:00,
2013-03-17 22:47:00,35.1,29.6,29.91,ESE,115,2.5,5.8,80,0.00,OVC,,0.00,0.0,WeatherDisplay:10.37,2013-03-18 03:47:00,
2013-03-17 22:52:00,35.1,29.6,29.91,ESE,111,3.0,7.0,80,0.00,OVC,OVC,0.00,0.0,WeatherDisplay:10.37,2013-03-18 03:52:00,
2013-03-17 22:57:00,35.1,29.5,29.91,East,99,2.0,9.0,80,0.00,OVC,OVC,0.00,0.0,WeatherDisplay:10.37,2013-03-18 03:57:00,
2013-03-17 23:00:00,35.0,29.8,29.91,NE,45,2.3,7.0,81,0.00,OVC,,0.00,0.0,WeatherDisplay:10.37,2013-03-18 04:00:00,
2013-03-17 23:02:00,35.0,29.8,29.90,SE,128,4.6,9.2,81,0.00,OVC,,0.00,0.0,WeatherDisplay:10.37,2013-03-18 04:02:00,
2013-03-17 23:08:00,34.9,29.7,29.90,ESE,112,3.5,7.0,81,0.00,OVC,,0.00,0.0,WeatherDisplay:10.37,2013-03-18 04:08:00,
2013-03-17 23:13:00,34.8,29.6,29.90,ENE,74,2.6,6.0,81,0.00,OVC,,0.00,0.0,WeatherDisplay:10.37,2013-03-18 04:13:00,
2013-03-17 23:18:00,34.8,29.6,29.90,ESE,113,1.4,7.0,81,0.00,OVC,,0.00,0.0,WeatherDisplay:10.37,2013-03-18 04:18:00,
2013-03-17 23:23:00,34.8,29.9,29.90,ENE,76,2.0,4.0,82,0.00,OVC,,0.00,0.0,WeatherDisplay:10.37,2013-03-18 04:23:00,
2013-03-17 23:29:00,34.8,29.9,29.90,East,101,4.3,7.0,82,0.00,OVC,,0.00,0.0,WeatherDisplay:10.37,2013-03-18 04:29:00,
2013-03-17 23:34:00,34.8,29.9,29.90,East,80,2.8,5.8,82,0.00,OVC,,0.00,0.0,WeatherDisplay:10.37,2013-03-18 04:34:00,
2013-03-17 23:39:00,34.8,29.9,29.90,East,97,5.5,11.5,82,0.00,OVC,,0.00,0.0,WeatherDisplay:10.37,2013-03-18 04:39:00,
2013-03-17 23:44:00,34.8,29.9,29.90,ESE,115,2.7,4.6,82,0.00,OVC,,0.00,0.0,WeatherDisplay:10.37,2013-03-18 04:44:00,
2013-03-17 23:50:00,34.8,29.6,29.90,ESE,102,1.8,4.6,81,0.00,OVC,,0.00,0.0,WeatherDisplay:10.37,2013-03-18 04:50:00,
2013-03-17 23:55:00,34.8,29.9,29.90,East,98,2.7,5.8,82,0.00,OVC,,0.00,0.0,WeatherDisplay:10.37,2013-03-18 04:55:00,